Zurück zum Katalog

STARLINK-5325

AktivKommunikationVLEO
NORAD 55292·PAYLOAD·🇺🇸 United States

Gestartet Jan 19, 2023 von Vandenberg Space Force Base

Loading…

Nächste Überflüge (nächste 24 Stunden)

TLE

AktuellSource: CelesTrak SupGP

Epoche: Sep 14, 2026, 13:28 UTC

1 55292C 23010Z   26257.56159722 -.00013544  00000+0 -11350-2 0  2575
2 55292  69.9995 268.1990 0003292 273.4115   4.3154 14.98338586    19

Verfolge STARLINK-5325 in Echtzeit mit AllMySat

Download on the App Store